Regional Weather Roundup
Issued by NWS Memphis, TN

Home | Current Version | Previous Version | Text Only | Print | Product List | Glossary On
Versions: 1 2 3 4 5 6 7 8 9 10 11 12 13 14 15 16 17 18 19 20 21 22 23 24 25 26 27 28 29 30 31 32 33 34 35 36 37 38 39 40 41 42 43 44 45 46 47 48 49 50
000
ASUS44 KMEG 191700
RWRMEG
MEMPHIS CWA HOURLY WEATHER ROUNDUP
NATIONAL WEATHER SERVICE MEMPHIS TN
1200 PM CDT WED JUN 19 2019

...WEST TENNESSEE...

CITY           SKY/WX    TMP DP  RH WIND       PRES   REMARKS
MEMPHIS INTL   PTSUNNY   86  74  67 S13G18    29.78F HX  94
NWS MEMPHIS      N/A     86 N/A N/A MISG        N/A
JACKSON        FAIR      85  73  67 SW10      29.80F HX  91
DYERSBURG      FAIR      86  72  62 SW10      29.77F HX  92


...EASTERN ARKANSAS...

CITY           SKY/WX    TMP DP  RH WIND       PRES   REMARKS
JONESBORO      FAIR      86  70  58 SW16G25   29.75F HX  90
WEST MEMPHIS   FAIR      86  74  67 S13       29.77F HX  94
BATESVILLE     SUNNY     83  69  62 SW9       29.76F
NEWPORT        FAIR      84  70  62 SW15      29.74F
WALNUT RIDGE   FAIR      86  74  67 S17       29.74S HX  94
BLYTHEVILLE    FAIR      87  70  56 SW12      29.76F HX  92
NW BLYTHEVILLE PTSUNNY   88  72  58 SW10G20   29.75F HX  94
SEARCY         FAIR      83  71  67 VRB7      29.77S
STUTTGART      FAIR      86  71  60 SW14      29.78S HX  91
PINE BLUFF     FAIR      83  67  58 S9        29.78F
MONTICELLO     FAIR      83  69  62 SW7       29.78F


...NORTH MISSISSIPPI...

CITY           SKY/WX    TMP DP  RH WIND       PRES   REMARKS
TUPELO         FAIR      88  70  55 W8        29.83F HX  93
OXFORD         FAIR      84  70  61 S10       29.84F
OLIVE BRANCH   PTSUNNY   84  75  74 S14       29.79F HX  92
CLARKSDALE     SUNNY     91  72  52 S15G22    29.79F HX  98
GREENWOOD      FAIR      88  73  61 SW15      29.82F HX  95
COLUMBUS       FAIR      87  73  62 W7        29.84F HX  94
STARKVILLE     FAIR      86  70  58 W7        29.87F HX  90
GOLDEN TRIANGL FAIR      87  72  60 SW10      29.86F HX  93


...SOUTHEAST MISSOURI...

CITY           SKY/WX    TMP DP  RH WIND       PRES   REMARKS
KENNETT        FAIR      88  72  58 SW15G23   29.73F HX  94
MALDEN         FAIR      86  72  62 SW10      29.75F HX  92
WEST PLAINS    PTSUNNY   74  67  78 S6        29.77S
POPLAR BLUFF   FAIR      82  75  79 S8        29.72F
CAPE GIRARDEAU FAIR      86  69  56 SW13      29.72F HX  90


...NORTHWEST ALABAMA...

CITY           SKY/WX    TMP DP  RH WIND       PRES   REMARKS
MUSCLE SHOALS  PTSUNNY   86  69  56 SW15      29.85F HX  90


...MIDDLE TENNESSEE...

CITY           SKY/WX    TMP DP  RH WIND       PRES   REMARKS
NASHVILLE      PTSUNNY   85  69  58 SW12      29.81F
CLARKSVILLE    FAIR      85  71  63 SW8       29.78F HX  90


...WESTERN KENTUCKY...

CITY           SKY/WX    TMP DP  RH WIND       PRES   REMARKS
PADUCAH        PTSUNNY   84  70  62 SW14G23   29.74F


...CENTRAL ARKANSAS...

CITY           SKY/WX    TMP DP  RH WIND       PRES   REMARKS
LITTLE ROCK    MOSUNNY   83  67  58 SW14      29.77F


SKY/WX REPORTED AS FAIR MEANS FEW OR NO CLOUDS BELOW
12 THOUSAND FEET.





USA.gov is the U.S. government's official web portal to all federal, state and local government web resources and services.